TimeCST,TemperatureF,Dew PointF,Humidity,Sea Level PressureIn,VisibilityMPH,Wind Direction,Wind SpeedMPH,Gust SpeedMPH,PrecipitationIn,Events,Conditions,WindDirDegrees,DateUTC
12:15 AM,25.5,20.1,80,30.28,10.0,WNW,5.8,-,N/A,,Clear,300,2012-11-28 06:15:00
12:35 AM,25.3,20.3,81,30.28,10.0,WNW,9.2,-,N/A,,Clear,290,2012-11-28 06:35:00
12:55 AM,24.8,20.3,83,30.28,10.0,NW,6.9,-,N/A,,Clear,310,2012-11-28 06:55:00
1:15 AM,24.3,19.6,82,30.29,10.0,WNW,5.8,-,N/A,,Clear,300,2012-11-28 07:15:00
1:35 AM,23.7,19.6,84,30.29,10.0,WNW,6.9,-,N/A,,Clear,290,2012-11-28 07:35:00
1:55 AM,24.3,19.9,84,30.29,10.0,WNW,6.9,-,N/A,,Clear,300,2012-11-28 07:55:00
2:15 AM,23.5,19.4,84,30.30,10.0,WNW,6.9,-,N/A,,Clear,290,2012-11-28 08:15:00
2:35 AM,22.1,18.5,86,30.31,7.0,WNW,5.8,-,N/A,,Clear,290,2012-11-28 08:35:00
2:55 AM,20.5,17.2,87,30.32,7.0,West,6.9,-,N/A,,Clear,280,2012-11-28 08:55:00
3:15 AM,21.4,18.1,87,30.32,7.0,WNW,5.8,-,N/A,,Clear,290,2012-11-28 09:15:00
3:35 AM,20.8,17.4,87,30.33,10.0,NW,4.6,-,N/A,,Clear,310,2012-11-28 09:35:00
3:55 AM,21.9,19.0,89,30.32,7.0,NNW,5.8,-,N/A,,Clear,340,2012-11-28 09:55:00
4:15 AM,23.9,20.5,87,30.32,7.0,NNW,4.6,-,N/A,,Clear,340,2012-11-28 10:15:00
4:35 AM,21.0,16.9,84,30.33,7.0,West,3.5,-,N/A,,Clear,280,2012-11-28 10:35:00
4:55 AM,17.8,14.4,86,30.34,7.0,West,4.6,-,N/A,,Clear,280,2012-11-28 10:55:00
5:15 AM,18.3,15.4,89,30.34,7.0,WNW,4.6,-,N/A,,Clear,290,2012-11-28 11:15:00
5:35 AM,18.0,14.7,87,30.35,7.0,WNW,3.5,-,N/A,,Clear,300,2012-11-28 11:35:00
5:55 AM,17.8,14.7,88,30.35,7.0,Calm,Calm,-,N/A,,Clear,0,2012-11-28 11:55:00
6:15 AM,17.6,14.7,88,30.36,7.0,West,4.6,-,N/A,,Clear,270,2012-11-28 12:15:00
6:35 AM,18.3,15.6,89,30.37,7.0,West,8.1,-,N/A,,Clear,270,2012-11-28 12:35:00
6:55 AM,18.5,15.6,89,30.37,7.0,West,5.8,-,N/A,,Clear,280,2012-11-28 12:55:00
7:15 AM,17.2,14.0,87,30.37,7.0,Calm,Calm,-,N/A,,Clear,0,2012-11-28 13:15:00
7:35 AM,17.8,14.7,88,30.37,7.0,NW,4.6,-,N/A,,Clear,310,2012-11-28 13:35:00
7:55 AM,19.9,17.1,89,30.38,7.0,NW,3.5,-,N/A,,Clear,310,2012-11-28 13:55:00
8:15 AM,22.5,19.6,89,30.38,5.0,West,3.5,-,N/A,,Clear,280,2012-11-28 14:15:00
8:35 AM,25.3,21.6,86,30.39,7.0,Calm,Calm,-,N/A,,Clear,0,2012-11-28 14:35:00
8:55 AM,27.5,23.0,83,30.39,7.0,West,3.5,-,N/A,,Clear,280,2012-11-28 14:55:00
9:15 AM,28.6,23.5,81,30.40,10.0,Calm,Calm,-,N/A,,Clear,0,2012-11-28 15:15:00
9:55 AM,31.8,24.8,75,30.39,10.0,Calm,Calm,-,N/A,,Clear,0,2012-11-28 15:55:00
10:15 AM,34.2,25.5,71,30.39,10.0,Calm,Calm,-,N/A,,Clear,0,2012-11-28 16:15:00
10:35 AM,36.1,25.7,66,30.39,10.0,SE,3.5,-,N/A,,Clear,130,2012-11-28 16:35:00
10:55 AM,37.8,25.7,62,30.38,10.0,SSE,4.6,-,N/A,,Clear,150,2012-11-28 16:55:00
11:15 AM,38.8,25.5,59,30.37,10.0,SE,4.6,-,N/A,,Clear,140,2012-11-28 17:15:00
11:35 AM,40.3,25.5,56,30.35,10.0,SSE,8.1,-,N/A,,Clear,160,2012-11-28 17:35:00
11:55 AM,41.5,25.0,52,30.34,10.0,SSE,5.8,-,N/A,,Clear,160,2012-11-28 17:55:00
12:15 PM,43.2,24.6,48,30.32,10.0,SE,8.1,-,N/A,,Clear,140,2012-11-28 18:15:00
12:55 PM,45.1,23.9,43,30.30,10.0,SSE,9.2,-,N/A,,Clear,150,2012-11-28 18:55:00
1:15 PM,46.4,23.7,41,30.29,10.0,South,9.2,-,N/A,,Clear,180,2012-11-28 19:15:00
1:35 PM,47.3,23.4,39,30.28,10.0,South,10.4,-,N/A,,Clear,190,2012-11-28 19:35:00
1:55 PM,48.0,22.1,36,30.27,10.0,South,12.7,-,N/A,,Clear,180,2012-11-28 19:55:00
2:15 PM,49.1,21.9,34,30.26,10.0,South,9.2,-,N/A,,Clear,190,2012-11-28 20:15:00
2:35 PM,49.3,21.2,33,30.24,10.0,SSW,13.8,-,N/A,,Clear,200,2012-11-28 20:35:00
2:55 PM,49.6,20.8,32,30.24,10.0,South,11.5,-,N/A,,Clear,180,2012-11-28 20:55:00
3:15 PM,49.5,19.2,30,30.23,10.0,South,12.7,-,N/A,,Clear,180,2012-11-28 21:15:00
3:35 PM,49.1,18.5,30,30.22,10.0,South,12.7,-,N/A,,Clear,190,2012-11-28 21:35:00
3:55 PM,48.0,19.4,32,30.21,10.0,South,10.4,-,N/A,,Clear,170,2012-11-28 21:55:00
4:15 PM,46.8,19.8,34,30.20,10.0,SSE,9.2,-,N/A,,Clear,160,2012-11-28 22:15:00
4:35 PM,43.3,19.9,39,30.20,10.0,South,8.1,-,N/A,,Clear,170,2012-11-28 22:35:00
4:55 PM,39.0,19.2,45,30.20,10.0,SSE,9.2,-,N/A,,Clear,160,2012-11-28 22:55:00
5:15 PM,38.7,19.9,47,30.19,10.0,SSE,9.2,-,N/A,,Clear,150,2012-11-28 23:15:00
5:35 PM,35.4,19.2,52,30.19,10.0,SSE,10.4,-,N/A,,Clear,150,2012-11-28 23:35:00
5:55 PM,34.0,19.2,55,30.17,7.0,SSE,11.5,-,N/A,,Clear,150,2012-11-28 23:55:00
6:35 PM,33.3,20.1,59,30.18,10.0,SSE,9.2,-,N/A,,Clear,160,2012-11-29 00:35:00
6:55 PM,35.6,20.8,55,30.17,10.0,SSE,8.1,-,N/A,,Clear,160,2012-11-29 00:55:00
7:35 PM,34.7,21.6,59,30.17,10.0,SSE,9.2,-,N/A,,Clear,160,2012-11-29 01:35:00
7:55 PM,32.9,21.6,63,30.16,10.0,SSE,9.2,-,N/A,,Clear,160,2012-11-29 01:55:00
8:15 PM,33.3,22.3,64,30.14,10.0,SSE,9.2,-,N/A,,Clear,150,2012-11-29 02:15:00
8:35 PM,33.4,23.2,66,30.14,10.0,SSE,9.2,-,N/A,,Clear,160,2012-11-29 02:35:00
8:55 PM,34.7,23.7,64,30.14,10.0,SSE,8.1,-,N/A,,Clear,160,2012-11-29 02:55:00
9:15 PM,33.8,23.7,67,30.14,10.0,South,5.8,-,N/A,,Clear,170,2012-11-29 03:15:00
9:35 PM,32.7,23.5,69,30.14,10.0,SSE,6.9,-,N/A,,Clear,160,2012-11-29 03:35:00
9:55 PM,32.2,23.5,70,30.13,10.0,South,8.1,-,N/A,,Clear,170,2012-11-29 03:55:00
10:15 PM,35.1,25.7,69,30.13,10.0,South,6.9,-,N/A,,Clear,170,2012-11-29 04:15:00
10:35 PM,35.2,25.7,68,30.12,10.0,SSE,6.9,-,N/A,,Clear,160,2012-11-29 04:35:00
10:55 PM,34.3,25.9,71,30.13,10.0,SSE,9.2,-,N/A,,Clear,160,2012-11-29 04:55:00
11:15 PM,34.2,26.1,72,30.13,10.0,South,9.2,-,N/A,,Clear,170,2012-11-29 05:15:00
11:35 PM,34.2,26.4,73,30.12,10.0,SSE,9.2,-,N/A,,Clear,160,2012-11-29 05:35:00